Flag for Germany Weather past 2 weeks in Paderborn, North Rhine-Westphalia, Germany

Now
68 °F

Scattered clouds.


Feels Like: 68 °F
Forecast: 61 / 74 °F
Wind: 3 mph from Northwest

Location: Paderborn / Lippstadt

Current Time: Jul 29, 2014 at 11:24:32 AM

Latest Report: Jul 29, 2014 at 10:50 AM


Visibility: 4 mi

Pressure: 29.86 "Hg

Humidity: 88%

Dew point: 64 °F

Location of PaderbornLocation

Historic Weather in Paderborn — Graph

°F

Paderborn temperature yesterday

Maximum temperature yesterday: 81 °F (at 3:20 PM)
Minimum temperature yesterday: 59 °F (at 5:20 AM)
Average temperature yesterday: 71 °F

Past Weeks' High & Low Weather Summary

 TemperatureHumidityPressure
High88 °F (Jul 19, 1:50 PM)100% (Jul 21, 5:50 AM)30.21 "Hg (Jul 21, 5:50 AM)
Low54 °F (Jul 15, 3:20 AM)27% (Jul 19, 1:20 PM)29.80 "Hg (Jul 20, 4:50 AM)
Average69 °F70%30.01 "Hg
* Reported Jul 14 10:20 AM — Jul 29 10:20 AM, Paderborn, Weather by CustomWeather, © 2014

Note: Actual official high and low records may vary slightly from our data, if they occured in-between our weather recording intervals... More about our weather records

Advertising

Paderborn weather history for previous 24 hours

 ConditionsComfort  
Time TempWeatherWind HumidityBarometerVisibility
10:20 AM
Jul 29
68 °FScattered clouds.2 mph88%29.86 "Hg4 mi
9:50 AM66 °FScattered clouds.1 mph94%29.86 "Hg4 mi
9:20 AM66 °FPassing clouds.1 mph94%29.86 "Hg4 mi
8:50 AM64 °FPassing clouds.3 mph94%29.86 "Hg4 mi
8:20 AM63 °FPassing clouds.3 mph100%29.86 "Hg6 mi
7:50 AM63 °FPassing clouds.3 mph100%29.86 "Hg5 mi
7:20 AM61 °FClear.2 mph100%29.86 "Hg4 mi
6:50 AM61 °FClear.2 mph94%29.83 "Hg5 mi
6:20 AM59 °FClear.2 mph100%29.83 "Hg5 mi
5:50 AM59 °FClear.3 mph100%29.86 "Hg5 mi
5:20 AM59 °FPassing clouds.2 mph100%29.86 "Hg5 mi
4:50 AM59 °FPassing clouds.2 mph100%29.86 "Hg5 mi
4:20 AM59 °FClear.2 mph100%29.86 "Hg10 mi
3:50 AM61 °FClear.2 mph100%29.86 "Hg10 mi
11:50 PM
Jul 28
63 °FThundershowers. Clear.5 mph100%29.89 "HgN/A
10:50 PM64 °FPartly cloudy.6 mph94%29.89 "HgN/A
10:20 PM64 °FBroken clouds.5 mph88%29.89 "HgN/A
9:50 PM64 °FThundershowers. Broken clouds.5 mph88%29.89 "HgN/A
9:20 PM64 °FScattered showers. Scattered clouds.7 mph94%29.89 "HgN/A
8:50 PM66 °FScattered showers. Scattered clouds.7 mph88%29.86 "HgN/A
8:20 PM72 °FScattered showers. Clear.2 mph69%29.86 "HgN/A
7:50 PM75 °FPassing clouds.7 mph61%29.83 "HgN/A
7:20 PM75 °FScattered showers. Scattered clouds.7 mph61%29.83 "HgN/A
6:50 PM75 °FScattered showers. Scattered clouds.13 mph57%29.83 "HgN/A
6:20 PM79 °FScattered showers. Scattered clouds.7 mph54%29.83 "HgN/A
5:50 PM79 °FSunny.9 mph51%29.83 "Hg10 mi
5:20 PM79 °FSunny.9 mph51%29.83 "Hg10 mi
4:50 PM81 °FScattered clouds.9 mph48%29.83 "HgN/A
4:20 PM79 °FScattered clouds.12 mph51%29.86 "HgN/A
3:50 PM79 °FScattered clouds.8 mph51%29.86 "HgN/A
3:20 PM81 °FScattered clouds.13 mph48%29.86 "HgN/A
2:50 PM79 °FScattered clouds.10 mph51%29.86 "HgN/A
2:20 PM79 °FScattered clouds.10 mph51%29.86 "HgN/A
1:50 PM77 °FScattered clouds.9 mph54%29.89 "HgN/A
1:20 PM79 °FPassing clouds.9 mph51%29.89 "HgN/A
12:50 PM77 °FPassing clouds.9 mph54%29.89 "HgN/A
12:20 PM77 °FClear.7 mph57%29.89 "Hg6 mi
11:50 AM75 °FClear.9 mph61%29.92 "Hg6 mi
11:20 AM73 °FClear.8 mph65%29.92 "Hg6 mi
Weather by CustomWeather, © 2014

See weather overviewHow to use our weather pages